FW2418 Weather Reports


Display with metric or nautical units.
time (UTC)temp
F
wind
direction
speed
MPH
gust
MPH
rain 1hr
in
rain 24hr
in
rain mn
in
humidity
%
barometer
mb
20260505083356 56 128 0.0 0.0 0.00 0.00 0.00 96 1012.6
20260505082354 56 128 0.0 0.0 0.00 0.00 0.00 96 1012.3
20260505081354 57 129 0.0 0.0 0.00 0.00 0.00 96 1012.3
20260505080353 57 129 0.0 0.0 0.00 0.00 0.00 96 1012.6
20260505075352 57 128 0.0 0.0 0.00 0.00 0.00 96 1012.6
20260505074351 57 129 0.0 0.0 0.00 0.00 0.00 96 1012.6
20260505073350 57 128 0.0 0.0 0.00 0.00 0.00 96 1012.6
20260505072349 57 128 0.0 0.0 0.00 0.00 0.00 96 1012.6
20260505071348 57 128 0.0 0.0 0.00 0.00 0.00 96 1012.6
20260505070316 58 128 0.0 0.0 0.00 0.00 0.00 96 1012.6
20260505065315 58 128 0.0 0.0 0.00 0.00 0.00 96 1012.6
20260505064243 58 128 0.0 0.0 0.00 0.00 0.00 95 1012.9
20260505063242 58 128 0.0 0.0 0.00 0.00 0.00 95 1012.9
20260505062241 59 129 0.0 0.0 0.00 0.00 0.00 95 1012.9
20260505061240 59 129 0.0 0.0 0.00 0.00 0.00 95 1012.9
20260505060239 59 128 0.0 0.0 0.00 0.00 0.00 95 1012.9
20260505055207 59 128 0.0 0.0 0.00 0.00 0.00 94 1013.3
20260505054206 59 129 0.0 0.0 0.00 0.00 0.00 94 1013.3
20260505053205 59 129 0.0 0.0 0.00 0.00 0.00 94 1013.6
20260505052205 59 129 0.0 0.0 0.00 0.00 0.00 94 1013.6
20260505051132 60 128 0.0 0.0 0.00 0.00 0.00 93 1014.0
20260505050132 60 129 0.0 0.0 0.00 0.00 0.00 93 1014.0
20260505041128 61 129 0.0 0.0 0.00 0.00 0.00 89 1014.0
20260505040127 62 128 0.0 0.0 0.00 0.00 0.00 89 1014.0
20260505035126 62 129 0.0 0.0 0.00 0.00 0.00 88 1014.3
20260505034053 62 128 0.0 0.0 0.00 0.00 0.00 86 1014.3
20260505033053 63 129 0.0 0.0 0.00 0.00 0.00 86 1014.3
20260505032021 64 129 0.0 0.0 0.00 0.00 0.00 85 1014.3
20260505031020 64 128 0.0 0.0 0.00 0.00 0.00 82 1014.6
20260505030019 65 129 0.0 1.0 0.00 0.00 0.00 81 1014.3
20260505025019 65 128 0.0 1.0 0.00 0.00 0.00 80 1014.3
20260505024018 65 128 0.0 0.0 0.00 0.00 0.00 79 1014.6
20260505023017 66 128 0.0 1.0 0.00 0.00 0.00 78 1014.6
20260505022016 66 128 0.0 1.0 0.00 0.00 0.00 77 1014.6
20260505021015 66 131 0.0 1.0 0.00 0.00 0.00 77 1014.6
20260505020015 66 131 0.0 1.0 0.00 0.00 0.00 77 1014.3
20260505015013 67 131 0.0 0.0 0.00 0.00 0.00 76 1014.3
20260505014012 67 131 0.0 0.0 0.00 0.00 0.00 75 1014.0
20260505013012 67 131 0.0 1.0 0.00 0.00 0.00 74 1014.0
20260505012011 68 131 0.0 1.0 0.00 0.00 0.00 73 1014.0
20260505011010 68 131 0.0 1.0 0.00 0.00 0.00 72 1013.6
20260505010009 69 131 0.0 1.0 0.00 0.00 0.00 70 1014.0
20260505005008 70 131 0.0 2.0 0.00 0.00 0.00 69 1013.6
20260505004007 70 132 1.0 4.0 0.00 0.00 0.00 67 1013.6
20260505003006 71 125 1.0 4.0 0.00 0.00 0.00 66 1013.6
20260505002005 71 128 0.0 5.0 0.00 0.00 0.00 65 1013.6
20260505001004 72 120 2.0 6.0 0.00 0.00 0.00 64 1013.3
20260505000003 72 125 1.0 6.0 0.00 0.00 0.00 63 1013.3
20260504235002 73 134 2.0 6.0 0.00 0.00 0.00 62 1013.3
20260504233930 73 105 1.0 7.0 0.00 0.00 0.00 61 1012.9
20260504232929 74 116 3.0 8.0 0.00 0.00 0.00 60 1012.9
20260504231928 74 123 2.0 8.0 0.00 0.00 0.00 60 1012.9
20260504230927 75 110 2.0 8.0 0.00 0.00 0.00 60 1012.9
20260504225926 75 96 4.0 7.0 0.00 0.00 0.00 58 1012.9
20260504224925 75 119 4.0 8.0 0.00 0.00 0.00 58 1012.9
20260504223924 76 57 2.0 6.0 0.00 0.00 0.00 57 1012.9
20260504222923 76 106 2.0 9.0 0.00 0.00 0.00 57 1012.9
20260504221922 76 47 2.0 6.0 0.00 0.00 0.00 56 1012.9
20260504220921 76 87 2.0 6.0 0.00 0.00 0.00 56 1012.9
20260504215849 77 54 2.0 6.0 0.00 0.00 0.00 55 1012.9
20260504214745 77 79 2.0 7.0 0.00 0.00 0.00 56 1012.9
20260504213744 77 137 4.0 8.0 0.00 0.00 0.00 54 1012.9
20260504212744 78 111 3.0 7.0 0.00 0.00 0.00 54 1012.9
20260504211711 78 37 4.0 13.0 0.00 0.00 0.00 53 1012.9
20260504210711 78 67 3.0 14.0 0.00 0.00 0.00 53 1013.3
20260504205710 79 108 4.0 13.0 0.00 0.00 0.00 52 1012.9
20260504204709 79 27 3.0 9.0 0.00 0.00 0.00 51 1012.9
20260504203636 80 60 2.0 10.0 0.00 0.00 0.00 50 1012.9
20260504202605 80 114 2.0 6.0 0.00 0.00 0.00 50 1012.9
20260504201532 80 110 3.0 7.0 0.00 0.00 0.00 50 1012.9
20260504200532 80 103 2.0 7.0 0.00 0.00 0.00 52 1013.3
20260504195530 80 71 3.0 10.0 0.00 0.00 0.00 50 1013.3
20260504194529 80 85 2.0 10.0 0.00 0.00 0.00 51 1013.6
20260504193528 81 54 3.0 9.0 0.00 0.00 0.00 50 1013.3
20260504192527 82 90 3.0 8.0 0.00 0.00 0.00 50 1013.6
20260504191526 81 127 2.0 9.0 0.00 0.00 0.00 49 1013.6
20260504190524 82 106 3.0 10.0 0.00 0.00 0.00 48 1014.0
20260504185524 82 34 3.0 9.0 0.00 0.00 0.00 49 1014.0
20260504184523 81 52 4.0 11.0 0.00 0.00 0.00 50 1014.0
20260504183522 81 55 3.0 9.0 0.00 0.00 0.00 50 1014.3
20260504182521 82 74 4.0 9.0 0.00 0.00 0.00 50 1014.3
20260504181521 82 148 3.0 9.0 0.00 0.00 0.00 49 1014.7
20260504180448 81 30 4.0 9.0 0.00 0.00 0.00 50 1014.7
20260504175447 80 38 3.0 10.0 0.00 0.00 0.00 51 1014.6
20260504174447 81 53 3.0 11.0 0.00 0.00 0.00 51 1014.6
20260504173446 82 33 3.0 10.0 0.00 0.00 0.00 50 1014.7
20260504172342 80 100 3.0 8.0 0.00 0.00 0.00 50 1014.7
20260504171341 80 36 2.0 8.0 0.00 0.00 0.00 53 1014.6
20260504170339 81 54 2.0 8.0 0.00 0.00 0.00 51 1014.7
20260504160334 79 9 2.0 12.0 0.00 0.00 0.00 50 1015.3
20260504150154 76 68 1.0 11.0 0.00 0.00 0.00 57 1015.7
20260504141119 76 23 2.0 8.0 0.00 0.00 0.00 57 1015.3
20260504140118 76 28 3.0 10.0 0.00 0.00 0.00 56 1015.3
20260504120145 64 36 1.0 4.0 0.00 0.00 0.00 88 1014.6